TimeCST,TemperatureF,Dew PointF,Humidity,Sea Level PressureIn,VisibilityMPH,Wind Direction,Wind SpeedMPH,Gust SpeedMPH,PrecipitationIn,Events,Conditions,WindDirDegrees,DateUTC
12:53 AM,39.9,24.1,53,30.12,10.0,Calm,Calm,-,N/A,,Scattered Clouds,0,2012-01-10 06:53:00
1:53 AM,36.0,25.0,64,30.11,10.0,Calm,Calm,-,N/A,,Clear,0,2012-01-10 07:53:00
2:53 AM,35.1,24.1,64,30.09,10.0,Calm,Calm,-,N/A,,Clear,0,2012-01-10 08:53:00
3:53 AM,35.1,23.0,61,30.07,10.0,Calm,Calm,-,N/A,,Clear,0,2012-01-10 09:53:00
4:53 AM,35.1,24.1,64,30.03,10.0,Calm,Calm,-,N/A,,Clear,0,2012-01-10 10:53:00
5:53 AM,32.0,24.1,73,30.05,10.0,SE,3.5,-,N/A,,Clear,130,2012-01-10 11:53:00
6:53 AM,35.1,26.1,70,30.05,10.0,SSE,5.8,-,N/A,,Mostly Cloudy,160,2012-01-10 12:53:00
7:53 AM,39.0,26.1,60,30.06,10.0,SE,8.1,-,N/A,,Overcast,130,2012-01-10 13:53:00
8:53 AM,39.9,26.1,58,30.04,10.0,ESE,6.9,-,N/A,,Overcast,120,2012-01-10 14:53:00
9:53 AM,42.1,28.0,58,30.04,10.0,SE,6.9,-,N/A,,Overcast,130,2012-01-10 15:53:00
10:53 AM,44.1,27.0,51,30.01,10.0,East,4.6,-,N/A,,Overcast,100,2012-01-10 16:53:00
11:53 AM,45.0,27.0,49,29.98,10.0,SE,6.9,-,N/A,,Overcast,130,2012-01-10 17:53:00
12:53 PM,44.1,25.0,47,29.92,10.0,SE,6.9,-,N/A,,Overcast,130,2012-01-10 18:53:00
1:53 PM,42.1,32.0,67,29.89,10.0,SE,9.2,-,0.01,,Overcast,140,2012-01-10 19:53:00
2:53 PM,39.0,33.1,79,29.87,3.0,Calm,Calm,-,0.07,Rain,Rain,0,2012-01-10 20:53:00
3:13 PM,39.2,35.6,87,29.85,4.0,ESE,3.5,-,0.05,Rain,Rain,120,2012-01-10 21:13:00
3:53 PM,39.0,35.1,86,29.87,7.0,NE,4.6,-,0.06,Rain,Light Rain,50,2012-01-10 21:53:00
4:53 PM,37.9,36.0,93,29.86,3.0,SSE,3.5,-,0.07,Rain,Rain,150,2012-01-10 22:53:00
5:53 PM,37.9,37.0,97,29.86,4.0,Calm,Calm,-,0.13,Rain,Rain,0,2012-01-10 23:53:00
6:39 PM,37.4,37.4,100,29.81,3.0,Calm,Calm,-,0.14,Rain,Rain,0,2012-01-11 00:39:00
6:49 PM,37.4,37.4,100,29.82,3.0,Calm,Calm,-,0.16,Rain,Rain,0,2012-01-11 00:49:00
6:53 PM,37.9,37.0,97,29.83,3.0,Calm,Calm,-,0.16,Rain,Rain,0,2012-01-11 00:53:00
7:12 PM,37.4,37.4,100,29.80,2.5,WNW,3.5,-,N/A,Rain,Rain,300,2012-01-11 01:12:00
7:39 PM,37.4,37.4,100,29.79,3.0,Calm,Calm,-,0.07,Rain,Light Rain,0,2012-01-11 01:39:00
7:51 PM,37.4,37.4,100,29.80,4.0,Calm,Calm,-,0.07,Rain,Light Rain,0,2012-01-11 01:51:00
7:53 PM,37.9,37.9,100,29.81,4.0,Calm,Calm,-,0.07,Rain,Light Rain,0,2012-01-11 01:53:00
8:09 PM,37.4,37.4,100,29.79,4.0,Calm,Calm,-,0.00,,Overcast,0,2012-01-11 02:09:00
8:19 PM,37.4,37.4,100,29.78,6.0,Calm,Calm,-,0.00,,Overcast,0,2012-01-11 02:19:00
8:53 PM,37.9,37.0,97,29.78,5.0,WNW,5.8,-,0.00,,Overcast,300,2012-01-11 02:53:00
9:15 PM,37.4,37.4,100,29.74,4.0,WNW,6.9,-,N/A,,Overcast,290,2012-01-11 03:15:00
9:45 PM,37.4,37.4,100,29.75,7.0,NW,3.5,-,N/A,,Overcast,310,2012-01-11 03:45:00
9:53 PM,37.4,37.4,100,29.74,7.0,NW,3.5,-,N/A,,Overcast,310,2012-01-11 03:53:00
10:53 PM,37.9,37.9,100,29.74,4.0,NW,3.5,-,N/A,,Overcast,320,2012-01-11 04:53:00
11:11 PM,37.4,37.4,100,29.72,4.0,WNW,5.8,-,N/A,,Overcast,300,2012-01-11 05:11:00
11:53 PM,37.9,37.9,100,29.72,3.0,WNW,4.6,-,N/A,,Overcast,290,2012-01-11 05:53:00